time_stamp(utc),avg(mph),gust(mph),direction(deg),12m_air_temp(f),sonic_u(cm/s),sonic_v(cm/s),sonic_w(cm/s),pressure,2m_air_temp(f),pyranometer(W/m^2)
"2017-11-03 00:02:42+00",8.3,9.3,,62.8,158,-322,-5,1022.26,61.5,0
"2017-11-03 00:07:42+00",7.8,9.8,,62.8,117,-304,-3,1022.16,61.7,0
"2017-11-03 00:12:42+00",8.1,10.1,,63,65,-336,-6,1022.11,61.9,0
"2017-11-03 00:17:42+00",8.8,9.8,,63,112,-352,-7,1022.06,62,0
"2017-11-03 00:22:42+00",7.8,9.8,,63,49,-320,-10,1022.04,61.9,0
"2017-11-03 00:27:42+00",7.6,9.6,,62.9,18,-318,-4,1021.99,62,0
"2017-11-03 00:32:42+00",7.8,9.8,,62.8,31,-331,-12,1022,61.9,0
"2017-11-03 00:37:42+00",8.1,10.1,,62.9,33,-346,-9,1021.96,62.1,0
"2017-11-03 00:42:42+00",8.0,9.0,,62.8,59,-333,-3,1021.94,61.9,0
"2017-11-03 00:47:42+00",8.5,10.5,,62.8,38,-366,-8,1021.84,62,0
"2017-11-03 00:52:42+00",8.9,9.9,,62.9,25,-379,-14,1021.79,62,0
"2017-11-03 00:57:42+00",9.5,11.5,,62.9,38,-393,-11,1021.76,62.1,0
"2017-11-03 01:02:42+00",9.8,11.8,,63,65,-416,-10,1021.77,62.1,0
"2017-11-03 01:07:42+00",9.2,11.2,,63,42,-383,-5,1021.73,62.2,0
"2017-11-03 01:12:42+00",9.2,11.2,,63,64,-389,-15,1021.79,62.2,0
"2017-11-03 01:17:42+00",9.9,11.9,,62.9,78,-413,-13,1021.64,62.1,0
"2017-11-03 01:22:42+00",8.5,10.5,,62.9,21,-356,-1,1021.66,62.2,0
"2017-11-03 01:27:42+00",8.6,11.6,,62.9,16,-362,1,1021.67,62.1,0
"2017-11-03 01:32:42+00",9.1,11.1,,62.8,37,-383,-8,1021.61,62.2,0
"2017-11-03 01:37:42+00",8.9,10.9,,62.9,6,-365,-5,1021.61,62.2,0
"2017-11-03 01:42:42+00",8.6,10.6,,63,-1,-355,-7,1021.57,62.3,0
"2017-11-03 01:47:42+00",9.0,12.0,,63.2,-62,-376,-7,1021.61,62.5,0
"2017-11-03 01:52:42+00",9.7,12.7,,63.3,-56,-401,-26,1021.66,62.6,0
"2017-11-03 01:57:42+00",9.1,11.1,,63.5,-51,-375,-10,1021.63,62.7,0
"2017-11-03 02:02:42+00",7.6,9.6,,63.5,-60,-312,-7,1021.54,62.7,0
"2017-11-03 02:07:42+00",8.7,10.7,,63.5,-66,-356,-14,1021.62,62.7,0
"2017-11-03 02:12:42+00",8.4,9.4,,63.3,-90,-343,-6,1021.6,62.5,0
"2017-11-03 02:17:42+00",7.8,9.8,,63.2,-45,-328,-3,1021.63,62.5,0
"2017-11-03 02:22:42+00",7.8,9.8,,63.1,-16,-321,-7,1021.58,62.3,0
"2017-11-03 02:27:42+00",8.5,10.5,,62.9,-47,-363,-7,1021.43,62.1,0
"2017-11-03 02:32:42+00",8.3,10.3,,62.8,-21,-354,-15,1021.53,62,0
"2017-11-03 02:37:42+00",6.8,7.8,,62.7,-17,-282,-3,1021.39,61.9,0
"2017-11-03 02:42:42+00",8.4,9.4,,62.8,-25,-358,-13,1021.42,62.1,0
"2017-11-03 02:47:42+00",8.6,10.6,,62.7,-21,-362,-12,1021.36,62,0
"2017-11-03 02:52:42+00",8.3,10.3,,62.7,-18,-338,-13,1021.31,61.9,0
"2017-11-03 02:57:42+00",7.7,9.7,,62.7,-35,-318,-10,1021.49,61.9,0
"2017-11-03 03:02:42+00",6.9,7.9,,62.8,-48,-286,-11,1021.24,62.1,0
"2017-11-03 03:07:42+00",7.1,7.1,,62.6,-13,-296,-16,1021.08,61.8,0
"2017-11-03 03:12:42+00",8.0,9.0,,62.7,-40,-333,-18,1021.21,61.9,0
"2017-11-03 03:17:42+00",6.6,7.6,,62.8,-59,-270,-3,1021.19,61.9,0
"2017-11-03 03:22:42+00",7.7,8.7,,62.8,-18,-323,-10,1021.15,62,0
"2017-11-03 03:27:42+00",7.6,8.6,,62.8,-67,-322,-11,1021.02,62,0
"2017-11-03 03:32:42+00",8.2,10.2,,62.9,-10,-336,-7,1020.96,62,0
"2017-11-03 03:37:42+00",7.1,9.1,,62.9,-50,-299,-5,1020.87,62,0
"2017-11-03 03:42:42+00",7.1,9.1,,62.8,-63,-295,-14,1020.93,62,0
"2017-11-03 03:47:42+00",7.6,9.6,,62.8,-45,-321,-10,1021,61.9,0
"2017-11-03 03:52:42+00",7.2,8.2,,62.7,-72,-295,-2,1020.99,61.8,0
"2017-11-03 03:57:42+00",7.2,8.2,,62.6,-127,-276,-3,1020.92,61.7,0
"2017-11-03 04:02:42+00",7.6,9.6,,62.7,-156,-292,6,1020.92,61.5,0
"2017-11-03 04:07:42+00",6.9,7.9,,62.6,-148,-259,2,1020.95,61.3,0
"2017-11-03 04:12:42+00",6.1,7.1,,62.5,-161,-214,6,1020.99,61.2,0
"2017-11-03 04:17:42+00",5.8,6.8,,62.3,-177,-183,6,1020.98,60.9,0
"2017-11-03 04:22:42+00",4.4,4.4,,61.9,-148,-104,10,1020.97,60.5,0
"2017-11-03 04:27:42+00",4.8,4.8,,61.8,-164,-118,5,1020.88,60.1,0
"2017-11-03 04:32:42+00",5.0,6.0,,62,-138,-168,2,1020.88,59.8,0
"2017-11-03 04:37:42+00",5.4,5.4,,62.2,-171,-169,-1,1020.79,59.7,0
"2017-11-03 04:42:42+00",5.7,5.7,,62.4,-118,-211,2,1020.88,60,0
"2017-11-03 04:47:42+00",5.4,5.4,,62.3,-94,-205,-1,1020.84,60.5,0
"2017-11-03 04:52:42+00",5.3,5.3,,62.2,-67,-210,-3,1021,60.7,0
"2017-11-03 04:57:42+00",5.6,6.6,,62.3,-107,-209,-3,1020.77,60.7,0
"2017-11-03 05:02:42+00",3.9,3.9,,62.4,-145,-86,6,1020.75,60.6,0
"2017-11-03 05:07:42+00",3.8,3.8,,62.1,-113,-108,1,1020.74,60.1,0
"2017-11-03 05:12:42+00",4.4,4.4,,62.2,-109,-158,0,1020.7,59.8,0
"2017-11-03 05:17:42+00",4.7,4.7,,62.4,-120,-168,4,1020.65,60,0
"2017-11-03 05:22:42+00",2.9,2.9,,62.2,-92,-98,1,1020.59,60.1,0
"2017-11-03 05:27:42+00",3.8,3.8,,62.1,-36,-150,-2,1020.58,59.7,0
"2017-11-03 05:32:42+00",4.9,5.9,,62.6,-66,-191,2,1020.58,59.8,0
"2017-11-03 05:37:42+00",5.1,6.1,,62.6,-98,-189,-1,1020.4,59.8,0
"2017-11-03 05:42:42+00",6.1,6.1,,62.7,-78,-242,-2,1020.37,60.2,0
"2017-11-03 05:47:42+00",6.5,7.5,,62.6,-22,-273,-9,1020.22,59.3,0
"2017-11-03 05:52:42+00",9.1,10.1,,62.9,-28,-389,-12,1020.01,59.4,0
"2017-11-03 05:57:42+00",8.6,9.6,,63.1,-18,-362,-4,1020.07,59.9,0
"2017-11-03 06:02:42+00",7.1,7.1,,62.4,62,-292,-12,1020.07,59.7,0
"2017-11-03 06:07:42+00",7.1,8.1,,62.3,-56,-294,-7,1019.93,59.9,0
"2017-11-03 06:12:42+00",6.8,8.8,,62.2,-20,-282,0,1019.99,60.4,0
"2017-11-03 06:17:42+00",7.1,7.1,,62.1,-21,-291,-5,1019.91,60,0
"2017-11-03 06:22:42+00",8.0,9.0,,62.1,43,-338,-15,1019.9,59.7,0
"2017-11-03 06:27:42+00",8.0,8.0,,62.1,8,-337,-12,1019.83,59.4,0
"2017-11-03 06:32:42+00",8.6,9.6,,62,12,-365,-11,1019.76,59.8,0
"2017-11-03 06:37:42+00",8.9,10.9,,62,-58,-364,-4,1019.73,59.7,0
"2017-11-03 06:42:42+00",8.4,10.4,,62,-59,-344,-7,1019.73,60.3,0
"2017-11-03 06:47:42+00",8.0,8.0,,61.7,42,-334,-19,1019.68,60,0
"2017-11-03 06:52:42+00",9.0,10.0,,62,5,-378,-15,1019.58,59.9,0
"2017-11-03 06:57:42+00",7.6,8.6,,62.3,-52,-316,-9,1019.48,60.8,0
"2017-11-03 07:02:42+00",8.3,9.3,,62.1,10,-349,-13,1019.48,60.5,0
"2017-11-03 07:07:42+00",8.9,8.9,,62.3,-18,-371,-12,1019.51,60.1,0
"2017-11-03 07:12:42+00",6.3,7.3,,62.1,-64,-263,-5,1019.46,60.6,0
"2017-11-03 07:17:42+00",6.1,7.1,,61.6,-106,-233,-4,1019.44,60,0
"2017-11-03 07:22:42+00",7.3,8.3,,61.7,-79,-299,-6,1019.34,59.9,0
"2017-11-03 07:27:42+00",7.1,7.1,,61.6,-124,-273,-3,1019.37,60,0
"2017-11-03 07:32:42+00",7.1,8.1,,62,-217,-233,3,1019.35,59.7,0
"2017-11-03 07:37:42+00",6.9,7.9,,61.9,-213,-233,3,1019.26,59.6,0
"2017-11-03 07:42:42+00",6.6,6.6,,61.6,-97,-260,-5,1019.22,59.8,0
"2017-11-03 07:47:42+00",6.2,6.2,,61.4,-120,-234,-2,1019.13,59.9,0
"2017-11-03 07:52:42+00",6.4,7.4,,61.5,-206,-204,1,1019.11,59.6,0
"2017-11-03 07:57:42+00",7.5,7.5,,61.6,-235,-209,1,1018.98,59.2,0
"2017-11-03 08:02:42+00",6.5,7.5,,61.7,-195,-226,1,1018.95,58.9,0
"2017-11-03 08:07:42+00",6.0,7.0,,61.5,-202,-202,-1,1018.86,58.7,0
"2017-11-03 08:12:42+00",5.4,6.4,,61,-190,-126,7,1018.91,58.5,0
"2017-11-03 08:17:42+00",6.3,6.3,,61.1,-204,-165,2,1018.92,58.2,0
"2017-11-03 08:22:42+00",4.9,4.9,,60.7,-155,-132,1,1018.83,57.9,0
"2017-11-03 08:27:42+00",5.0,5.0,,60.7,-111,-183,-2,1018.87,58.4,0
"2017-11-03 08:32:42+00",5.3,6.3,,60.7,-117,-196,-1,1018.78,58.7,0
"2017-11-03 08:37:42+00",5.6,6.6,,60.9,-85,-218,-5,1018.79,59.1,0
"2017-11-03 08:42:42+00",6.4,6.4,,61,-127,-237,-1,1018.77,59.4,0
"2017-11-03 08:47:42+00",6.3,6.3,,61.3,-155,-240,-1,1018.84,58.9,0
"2017-11-03 08:52:42+00",7.1,7.1,,61.3,-97,-281,-8,1018.81,59,0
"2017-11-03 08:57:42+00",7.4,8.4,,61.4,-95,-296,-6,1018.71,59.7,0
"2017-11-03 09:02:42+00",6.8,7.8,,61.2,-81,-274,-2,1018.76,59.9,0
"2017-11-03 09:07:42+00",7.3,8.3,,61.4,-108,-291,-6,1018.68,59.8,0
"2017-11-03 09:12:42+00",7.7,7.7,,61.4,-95,-311,-7,1018.57,59.8,0
"2017-11-03 09:17:42+00",7.7,8.7,,61.2,-78,-323,-8,1018.58,59.8,0
"2017-11-03 09:22:42+00",6.7,7.7,,61.2,-55,-273,-3,1018.59,60,0
"2017-11-03 09:27:42+00",6.9,7.9,,61.2,0,-292,-8,1018.68,60.2,0
"2017-11-03 09:32:42+00",7.4,8.4,,61.1,-2,-305,-11,1018.68,59.7,0
"2017-11-03 09:37:42+00",6.7,8.7,,61.2,-38,-285,-5,1018.68,60,0
"2017-11-03 09:42:42+00",6.3,7.3,,61.2,-70,-256,-3,1018.78,60.3,0
"2017-11-03 09:47:42+00",7.1,8.1,,61.2,-125,-277,0,1018.77,60.1,0
"2017-11-03 09:52:42+00",7.1,8.1,,61.4,-165,-266,1,1018.73,60,0
"2017-11-03 09:57:42+00",6.6,7.6,,61.2,-158,-245,2,1018.76,59.9,0
"2017-11-03 10:02:42+00",7.4,8.4,,61.1,-149,-282,0,1018.75,59.9,0
"2017-11-03 10:07:42+00",7.3,8.3,,61,-101,-293,-1,1018.68,59.8,0
"2017-11-03 10:12:42+00",7.7,8.7,,60.8,-103,-311,-3,1018.68,59.8,0
"2017-11-03 10:17:42+00",7.8,8.8,,60.7,-82,-324,-6,1018.57,59.8,0
"2017-11-03 10:22:42+00",7.9,8.9,,60.8,-105,-312,-8,1018.58,59.9,0
"2017-11-03 10:27:42+00",7.0,8.0,,60.6,-88,-282,-4,1018.65,59.9,0
"2017-11-03 10:32:42+00",7.0,8.0,,60.5,-73,-284,-4,1018.62,59.8,0
"2017-11-03 10:37:42+00",7.5,7.5,,60.7,-128,-290,-2,1018.64,59.8,0
"2017-11-03 10:42:42+00",7.2,8.2,,61,-170,-270,-2,1018.66,59.8,0
"2017-11-03 10:47:42+00",7.7,8.7,,61,-159,-290,-1,1018.56,59.9,0
"2017-11-03 10:52:42+00",7.6,8.6,,60.8,-206,-272,0,1018.64,59.9,0
"2017-11-03 11:07:42+00",6.9,7.9,,60.4,20000,0,-1,1018.48,59.7,-0.1
"2017-11-03 11:12:42+00",6.7,7.7,,60.1,-307,-165,41,1018.55,59.7,0
"2017-11-03 11:17:42+00",6.5,7.5,,60.1,-255,-144,11,1018.54,59.6,0
"2017-11-03 11:22:42+00",5.8,6.8,,60,-236,-124,11,1018.51,59.6,0
"2017-11-03 11:27:42+00",6.1,7.1,,60,-203,-166,10,1018.32,59.5,0
"2017-11-03 11:32:42+00",5.5,6.5,,59.9,-133,-198,-1,1018.34,59.6,0
"2017-11-03 11:37:42+00",5.9,6.9,,59.9,-110,-227,-3,1018.32,59.5,0
"2017-11-03 11:42:42+00",5.2,5.2,,60,-127,-187,-1,1018.4,59.5,0
"2017-11-03 11:47:42+00",5.0,6.0,,59.9,-158,-154,4,1018.38,59.6,0
"2017-11-03 11:52:42+00",5.3,6.3,,60,-127,-195,-1,1018.47,59.6,0
"2017-11-03 11:57:42+00",5.6,6.6,,60,-132,-208,-3,1018.47,59.7,0
"2017-11-03 12:02:42+00",6.3,7.3,,60.1,-146,-232,-2,1018.48,59.8,0
"2017-11-03 12:07:42+00",5.8,5.8,,60.3,-163,-198,2,1018.46,59.9,1
"2017-11-03 12:12:42+00",5.6,6.6,,60.4,-163,-186,2,1018.51,60.1,6
"2017-11-03 12:17:42+00",5.1,6.1,,60.5,-153,-167,-2,1018.39,60.4,14.5
"2017-11-03 12:22:42+00",4.7,5.7,,60.7,-111,-170,-1,1018.4,60.7,24.2
"2017-11-03 12:27:42+00",4.7,4.7,,60.9,-91,-173,0,1018.4,60.9,27.1
"2017-11-03 12:32:42+00",5.3,6.3,,61,-37,-215,-3,1018.3,61.1,32
"2017-11-03 12:37:42+00",5.3,6.3,,61.2,-49,-205,-3,1018.22,61.2,38.4
"2017-11-03 12:42:42+00",5.5,7.5,,61.1,-105,-208,0,1018.22,61.4,51.8
"2017-11-03 12:47:42+00",6.2,7.2,,61.2,-157,-229,1,1018.22,61.7,66.5
"2017-11-03 12:52:42+00",6.7,7.7,,61.5,-199,-219,-2,1018.16,62.1,76.7
"2017-11-03 12:57:42+00",7.5,9.5,,61.7,-188,-272,-1,1018.21,62.3,68.1
"2017-11-03 13:02:42+00",7.7,9.7,,61.9,-157,-296,-1,1018.06,62.6,98.5
"2017-11-03 13:07:42+00",8.9,9.9,,62.3,-199,-333,5,1017.97,62.8,108.1
"2017-11-03 13:12:42+00",9.8,11.8,,62.8,-242,-366,-1,1017.92,62.8,116.6
"2017-11-03 13:17:42+00",9.8,10.8,,63.2,-249,-365,2,1017.86,63,125.3
"2017-11-03 13:22:42+00",10.4,11.4,,63.6,-276,-381,12,1017.95,63.4,137
"2017-11-03 13:27:42+00",9.9,11.9,,64,-308,-327,15,1017.94,63.6,145.6
"2017-11-03 13:32:42+00",10.6,12.6,,64.1,-321,-350,-4,1017.89,64.1,155.9
"2017-11-03 13:37:42+00",10.3,12.3,,64.4,-324,-310,13,1017.81,64.5,166.1
"2017-11-03 13:42:42+00",11.1,14.1,,64.5,-353,-346,10,1017.78,64.9,173.2
"2017-11-03 13:47:42+00",10.9,12.9,,64.6,-286,-396,0,1017.54,65.4,178.8
"2017-11-03 13:52:42+00",10.3,13.3,,64.9,-264,-392,27,1017.61,65.8,185.7
"2017-11-03 13:57:42+00",11.2,12.2,,65.2,-246,-431,8,1017.5,66.2,192.7
"2017-11-03 14:02:42+00",10.2,13.2,,65.5,-213,-393,14,1017.59,66.6,200.4
"2017-11-03 14:07:42+00",7.8,9.8,,65.9,-113,-320,-4,1017.68,67.1,203.6
"2017-11-03 14:12:42+00",9.3,10.3,,66,-207,-350,2,1017.68,67.4,210.5
"2017-11-03 14:17:42+00",8.0,9.0,,66.2,-256,-250,46,1017.66,67.9,203.6
"2017-11-03 14:22:42+00",8.7,10.7,,65.8,-255,-312,22,1017.65,68.4,217.9
"2017-11-03 14:27:42+00",9.6,12.6,,65.6,-264,-352,19,1017.53,68.5,213.2
"2017-11-03 14:32:42+00",11.7,13.7,,66,-362,-382,3,1017.52,68.7,226.6
"2017-11-03 14:37:42+00",11.8,13.8,,66.1,-350,-401,6,1017.42,68.6,231.3
"2017-11-03 14:42:42+00",11.7,12.7,,66.2,-319,-424,4,1017.35,68.6,235.6
"2017-11-03 14:47:42+00",11.9,14.9,,66.3,-386,-358,-9,1017.36,68.8,240
"2017-11-03 14:52:42+00",12.4,14.4,,66.2,-408,-363,35,1017.41,68.8,244
"2017-11-03 14:57:42+00",12.5,14.5,,66.3,-374,-424,15,1017.34,69,248.6
"2017-11-03 15:02:42+00",13.6,15.6,,66.3,-478,-346,14,1017.41,69.4,249.9
"2017-11-03 15:07:42+00",13.7,14.7,,66.2,-449,-391,0,1017.44,69.7,253.1
"2017-11-03 15:12:42+00",13.4,15.4,,66.4,-450,-370,16,1017.33,69.8,258.7
"2017-11-03 15:17:42+00",12.5,14.5,,66.6,-401,-389,44,1017.24,69.9,260.2
"2017-11-03 15:22:42+00",12.7,14.7,,66.8,-377,-425,10,1017.09,70.1,263.8
"2017-11-03 15:27:42+00",13.0,16.0,,67,-400,-431,3,1017.1,70.1,267.4
"2017-11-03 15:32:42+00",12.7,14.7,,67.2,-418,-356,16,1017.14,70.4,269.1
"2017-11-03 15:37:42+00",13.7,15.7,,67.5,-450,-426,-13,1017.13,70.6,275
"2017-11-03 15:42:42+00",13.4,15.4,,67.7,-421,-422,-15,1017.11,70.9,277.3
"2017-11-03 15:47:42+00",13.0,15.0,,67.8,-402,-424,6,1017,71.2,282.7
"2017-11-03 15:52:42+00",13.6,14.6,,68,-396,-462,6,1016.86,71.1,242.1
"2017-11-03 15:57:42+00",12.6,15.6,,68.2,-396,-408,1,1016.76,71,285.6
"2017-11-03 16:02:42+00",13.5,15.5,,68.6,-444,-399,6,1016.62,71.6,279.8
"2017-11-03 16:07:42+00",13.0,16.0,,68.6,-412,-393,21,1016.58,71.8,281.5
"2017-11-03 16:12:42+00",11.3,12.3,,68.8,-351,-383,1,1016.42,72,309.2
"2017-11-03 16:17:42+00",12.9,14.9,,69.2,-375,-452,3,1016.24,72.3,293.2
"2017-11-03 16:22:42+00",11.2,13.2,,69.7,-291,-408,12,1016.08,72.4,279
"2017-11-03 16:27:42+00",9.8,10.8,,70,-264,-362,32,1016.01,72.5,290.1
"2017-11-03 16:32:42+00",11.0,13.0,,70.3,-239,-425,13,1016.06,72.5,260.2
"2017-11-03 16:37:42+00",14.3,16.3,,70.3,-300,-549,-16,1016.05,72.4,243.8
"2017-11-03 16:42:42+00",12.1,14.1,,70.5,-337,-427,6,1016.05,72.6,237.1
"2017-11-03 16:47:42+00",14.1,16.1,,70.8,-426,-484,1,1015.83,72.7,241.2
"2017-11-03 16:52:42+00",13.8,15.8,,70.8,-413,-472,11,1015.86,72.7,210.9
"2017-11-03 16:57:42+00",13.4,16.4,,70.6,-390,-469,7,1015.76,72.4,230.4
"2017-11-03 17:02:42+00",13.7,16.7,,70.5,-397,-487,8,1015.74,72.1,160.1
"2017-11-03 17:07:42+00",12.9,14.9,,70.4,-375,-443,25,1015.71,72,222.1
"2017-11-03 17:12:42+00",14.6,16.6,,70.4,-448,-478,-8,1015.61,72,191.2
"2017-11-03 17:17:42+00",13.7,15.7,,70.3,-344,-509,4,1015.5,71.8,185.6
"2017-11-03 17:22:42+00",14.2,17.2,,70.4,-426,-485,1,1015.5,71.6,154.7
"2017-11-03 17:27:42+00",14.5,16.5,,70.6,-378,-530,-3,1015.31,71.8,207.2
"2017-11-03 17:32:42+00",13.1,15.1,,70.7,-295,-494,-9,1015.33,72.1,202.3
"2017-11-03 17:37:42+00",13.6,16.6,,71.1,-288,-522,10,1015.27,72.3,216.1
"2017-11-03 17:42:42+00",12.4,15.4,,71.2,-303,-466,12,1015.25,72.6,214.1
"2017-11-03 17:47:42+00",14.5,17.5,,71.3,-406,-519,-2,1015.11,72.8,276.6
"2017-11-03 17:52:42+00",13.2,15.2,,71.4,-342,-481,-3,1015.11,73.1,263
"2017-11-03 17:57:42+00",14.4,16.4,,71.6,-372,-533,2,1015.05,73.3,262.5
"2017-11-03 18:02:42+00",13.4,14.4,,71.9,-416,-450,36,1015,73.6,285.5
"2017-11-03 18:07:42+00",14.9,16.9,,72.3,-448,-501,25,1014.81,74,202
"2017-11-03 18:12:42+00",14.1,15.1,,72.1,-397,-506,16,1014.87,73.8,150.7
"2017-11-03 18:17:42+00",13.3,16.3,,72,-378,-479,26,1014.91,73.5,214.8
"2017-11-03 18:22:42+00",14.3,16.3,,72.2,-381,-526,6,1014.81,73.8,272.9
"2017-11-03 18:27:42+00",13.9,15.9,,72.4,-354,-514,3,1014.75,74,273.4
"2017-11-03 18:32:42+00",13.9,14.9,,72.4,-400,-485,-1,1014.7,74.2,245.5
"2017-11-03 18:37:42+00",13.0,16.0,,72.3,-401,-447,34,1014.68,74,221.8
"2017-11-03 18:42:42+00",13.7,18.7,,72.3,-438,-421,30,1014.79,74.3,246.8
"2017-11-03 18:47:42+00",13.2,17.2,,71.9,-425,-412,16,1014.77,74.2,139.4
"2017-11-03 18:52:42+00",13.4,16.4,,71.5,-434,-397,-4,1014.73,73.6,97.4
"2017-11-03 18:57:42+00",13.5,15.5,,70.8,-416,-446,13,1014.81,72.7,71.8
"2017-11-03 19:02:42+00",14.0,16.0,,70.5,-485,-368,9,1014.89,72.1,136.3
"2017-11-03 19:07:42+00",13.9,15.9,,70.4,-465,-384,21,1014.95,72,67.5
"2017-11-03 19:12:42+00",11.5,13.5,,69.7,-378,-341,9,1014.89,71.4,35.1
"2017-11-03 19:17:42+00",11.5,13.5,,69.1,-410,-290,24,1014.96,71,41.6
"2017-11-03 19:22:42+00",10.6,12.6,,68.9,-374,-274,22,1014.99,70.6,72.1
"2017-11-03 19:27:42+00",9.2,11.2,,69.9,-322,-255,18,1014.92,70.8,211.5
"2017-11-03 19:32:42+00",12.5,14.5,,70.8,-411,-365,15,1014.88,71.7,179.1
"2017-11-03 19:37:42+00",10.8,12.8,,70.7,-345,-311,9,1014.78,71.8,112.1
"2017-11-03 19:42:42+00",10.5,12.5,,70.5,-365,-271,7,1014.72,71.8,96
"2017-11-03 19:47:42+00",9.3,11.3,,70.9,-331,-236,14,1014.54,71.8,46.5
"2017-11-03 19:52:42+00",10.5,12.5,,70.9,-394,-254,19,1014.69,71.7,19.4
"2017-11-03 19:57:42+00",9.8,10.8,,70.3,-415,-206,21,1014.83,71.6,17.1
"2017-11-03 20:02:42+00",8.6,10.6,,69.8,-364,-144,24,1014.86,71.3,45.6
"2017-11-03 20:07:42+00",9.3,10.3,,69.7,-384,-202,20,1014.82,71.2,94.7
"2017-11-03 20:12:42+00",9.2,11.2,,70.1,-373,-203,30,1014.86,71.7,117.9
"2017-11-03 20:17:42+00",9.1,11.1,,71,-384,-71,20,1014.82,72.4,111.9
"2017-11-03 20:22:42+00",9.0,10.0,,71.6,-389,-140,17,1014.86,73.2,91
"2017-11-03 20:27:42+00",7.8,9.8,,71.4,-332,-129,29,1014.91,73.7,86
"2017-11-03 20:32:42+00",9.6,10.6,,71.2,-363,-224,20,1014.88,73.9,52.4
"2017-11-03 20:37:42+00",9.3,10.3,,70.8,-358,-215,15,1014.95,73.6,1.2
"2017-11-03 20:42:42+00",8.5,9.5,,69.6,-295,-215,11,1015.09,72.6,1
"2017-11-03 20:47:42+00",7.6,10.6,,69.2,-271,-191,16,1015.14,71.9,47.9
"2017-11-03 20:52:42+00",8.3,9.3,,69,-274,-227,3,1015.17,71.4,0.3
"2017-11-03 20:57:42+00",6.0,7.0,,69,-245,-126,13,1015.17,70.9,0.8
"2017-11-03 21:02:42+00",6.6,7.6,,69,-276,-102,10,1015.28,70.5,0
"2017-11-03 21:07:42+00",7.7,8.7,,68.7,-295,-178,16,1015.39,70.1,0
"2017-11-03 21:12:42+00",6.8,8.8,,68.2,-278,-129,16,1015.4,69.6,0
"2017-11-03 21:17:42+00",7.1,8.1,,67.9,-296,-150,8,1015.44,69.3,0
"2017-11-03 21:22:42+00",7.9,10.9,,68.4,-336,-95,12,1015.49,68.9,0
"2017-11-03 21:27:42+00",9.4,10.4,,68.6,-390,-101,3,1015.67,68.5,0
"2017-11-03 21:32:42+00",7.2,8.2,,68.9,-312,30,19,1015.59,68.1,0
"2017-11-03 21:37:42+00",11.1,13.1,,69.3,-451,199,19,1015.76,67.9,0
"2017-11-03 21:42:42+00",11.0,13.0,,69.5,-456,191,33,1015.81,68,0
"2017-11-03 21:47:42+00",9.5,10.5,,68.8,-406,135,25,1015.79,67.8,0
"2017-11-03 21:52:42+00",9.3,10.3,,68.5,-397,121,22,1015.83,67.5,0
"2017-11-03 21:57:42+00",10.0,11.0,,68.8,-420,150,23,1015.95,67.2,0
"2017-11-03 22:02:42+00",11.1,12.1,,69.1,-462,198,23,1016.08,67,0
"2017-11-03 22:07:42+00",10.4,11.4,,69.1,-439,182,20,1016.04,67,0
"2017-11-03 22:12:42+00",9.7,10.7,,69,-402,174,23,1016.06,66.9,0
"2017-11-03 22:17:42+00",9.6,10.6,,69,-413,140,24,1016.15,66.8,0
"2017-11-03 22:22:42+00",11.0,12.0,,69.2,-431,223,25,1016.21,66.8,0
"2017-11-03 22:27:42+00",9.7,10.7,,69.3,-393,187,25,1016.25,67.1,0
"2017-11-03 22:32:42+00",10.9,11.9,,69.1,-417,250,20,1016.23,67,0
"2017-11-03 22:37:42+00",10.6,11.6,,69.1,-405,237,23,1016.39,67,0
"2017-11-03 22:42:42+00",10.2,11.2,,69.1,-398,220,24,1016.51,67,0
"2017-11-03 22:47:42+00",10.7,10.7,,69.1,-421,222,23,1016.52,67.1,0
"2017-11-03 22:52:42+00",10.1,11.1,,69.1,-405,187,24,1016.55,67.1,0
"2017-11-03 22:57:42+00",9.0,10.0,,68.6,-363,175,16,1016.57,67,0
"2017-11-03 23:02:42+00",9.7,10.7,,68.3,-386,188,14,1016.66,66.8,0
"2017-11-03 23:07:42+00",9.5,10.5,,68.2,-376,179,23,1016.66,66.7,0
"2017-11-03 23:12:42+00",8.0,9.0,,67.9,-325,159,16,1016.63,66.6,0
"2017-11-03 23:17:42+00",8.9,9.9,,67.6,-353,172,17,1016.65,66.4,0
"2017-11-03 23:22:42+00",9.4,10.4,,67.4,-353,222,26,1016.79,66.3,0
"2017-11-03 23:27:42+00",11.0,12.0,,67.4,-398,308,24,1016.92,66.2,0
"2017-11-03 23:32:42+00",10.2,11.2,,67.7,-366,265,23,1016.95,66.2,0
"2017-11-03 23:37:42+00",9.7,10.7,,67.7,-343,264,23,1017,66.2,0
"2017-11-03 23:42:42+00",9.8,9.8,,67.7,-356,254,25,1017.06,66.1,0
"2017-11-03 23:47:42+00",10.6,11.6,,68.1,-397,262,24,1017.13,65.9,0
"2017-11-03 23:52:42+00",10.1,11.1,,68.3,-389,231,22,1017.06,65.8,0
"2017-11-03 23:57:42+00",10.6,11.6,,68.3,-397,262,25,1017.17,65.8,0
